[[{"header":{"parameterUnit":"m.s-1","parameterCategory":1,"la1":30.2991,"la2":30.254,"lo1":-89.0895,"lo2":-89.0444,"dy":0.0017,"dx":0.0017,"nx":28,"ny":28,"refTime":"2025-11-25T03:00:00:Z","depth":0,"parameterNumber":2,"parameterNumberName":"U-component_of_WINDS"},"data":[0,0,0,0,0,0,0,0,0,0,0,0,0,0,0,0,0,0,0,0,0,0,0,0,0,0,0,0,0,0,0,0,0,0,0,0,0,0,0,0,0,0,0,0,0,0,0,0,0,0,0,0,0,0,0,0,0,0,-3.1223,-3.1223,0,-3.1189,-3.1189,-3.1188,-3.1091,-3.1089,-3.1087,-3.1085,-3.1051,-3.1052,-3.1053,0,0,0,0,0,0,0,0,0,0,0,0,0,-3.1208,-3.1209,-3.1223,-3.1223,-3.1222,-3.1189,-3.1189,-3.1188,-3.1091,-3.1089,-3.1086,-3.1084,-3.1051,-3.1052,-3.1053,0,0,0,0,0,0,0,0,0,0,0,0,0,-3.1199,-3.1209,-3.1223,-3.117,-3.1165,-3.1189,-3.1189,-3.1188,-3.1092,-3.1089,-3.1085,-3.1082,-3.105,-3.1052,-3.1053,-3.1127,0,0,-3.1058,-3.1059,0,0,0,0,0,0,0,0,-3.1199,-3.1199,-3.1178,-3.1174,-3.1168,-3.1141,-3.1171,-3.1168,-3.1093,-3.112,-3.1085,-3.1081,-3.1084,-3.1082,-3.1083,-3.1125,-3.1124,-3.1059,-3.106,-3.106,-3.1061,0,0,0,0,0,0,0,-3.12,-3.12,-3.121,-3.1178,-3.1172,-3.1149,-3.1144,-3.117,-3.112,-3.1117,-3.111,-3.1107,-3.108,-3.1082,-3.1081,-3.1123,-3.1058,-3.106,-3.1061,-3.1062,-3.1226,-3.1229,0,0,0,0,0,0,-3.1208,-3.1201,-3.1211,-3.1209,-3.1176,-3.1152,-3.1146,-3.1153,-3.1119,-3.1111,-3.111,-3.1103,-3.108,-3.108,-3.108,-3.1163,-3.106,-3.1062,-3.1063,-3.1223,-3.1227,-3.123,0,0,0,0,0,0,-3.1208,-3.121,-3.1212,-3.1203,-3.1202,-3.1155,-3.1164,-3.1154,-3.1155,-3.1114,-3.1105,-3.112,-3.1078,-3.1078,-3.1116,-3.116,-3.1062,-3.1064,-3.1219,-3.1224,-3.1228,-3.133,0,0,0,0,0,0,-3.1208,-3.121,-3.1236,-3.1204,-3.1202,-3.1248,-3.1166,-3.1155,-3.1158,-3.1148,-3.1121,-3.1113,-3.1075,-3.1114,-3.1118,-3.1161,-3.1065,-3.1214,-3.1221,-3.1227,-3.1323,-3.1338,-3.1351,0,0,0,0,0,-3.1208,-3.1267,-3.1238,-3.124,-3.1234,-3.1251,-3.125,-3.1204,-3.1162,-3.1188,-3.1163,-3.1114,-3.1156,-3.1119,-3.1122,-3.1166,-3.1211,-3.1219,-3.1226,-3.1316,-3.1335,-3.1351,0,0,0,0,0,0,-3.1305,-3.1261,-3.1229,-3.1279,-3.127,-3.1234,-3.1265,-3.1226,-3.1227,-3.1218,-3.1163,-3.1158,-3.1204,-3.119,-3.1149,-3.1237,-3.1176,-3.1185,-3.1243,-3.1261,-3.1275,-3.1276,-3.1067,0,0,0,0,0,-3.1332,-3.1348,-3.131,-3.1358,-3.1355,-3.1312,-3.1317,-3.1284,-3.1271,-3.1266,-3.1243,-3.1234,-3.1244,-3.1253,-3.126,-3.1322,-3.1314,-3.1354,-3.1369,-3.1381,-3.1388,-3.1419,-3.1436,-3.1255,-3.1255,-3.1255,0,0,-3.1388,-3.1367,-3.138,-3.1377,-3.1365,-3.1384,-3.1309,-3.1331,-3.1345,-3.127,-3.1303,-3.1288,-3.1274,-3.1324,-3.1345,-3.1313,-3.1437,-3.1391,-3.1401,-3.1401,-3.1429,-3.1446,-3.1461,-3.1261,-3.126,-3.1259,0,0,-3.1499,-3.1485,-3.1523,-3.1514,-3.1497,-3.1469,-3.1479,-3.1451,-3.1436,-3.147,-3.1415,-3.1432,-3.1452,-3.1443,-3.1442,-3.1556,-3.1511,-3.156,-3.1634,-3.1665,-3.168,-3.1692,-3.173,-3.1745,-3.1568,-3.1569,-3.1569,0,-3.157,-3.1595,-3.1548,-3.1574,-3.1575,-3.151,-3.1548,-3.1542,-3.153,-3.1532,-3.1498,-3.1522,-3.1508,-3.1556,-3.1584,-3.1586,-3.1595,-3.156,-3.1681,-3.1693,-3.1704,-3.174,-3.1755,-3.1574,-3.1574,-3.1573,-3.1573,0,-3.1683,-3.1702,-3.1735,-3.1724,-3.173,-3.1763,-3.1721,-3.1733,-3.1701,-3.1676,-3.1713,-3.1695,-3.1698,-3.1708,-3.1676,-3.1752,-3.1732,-3.1691,-3.1628,-3.1728,-3.1761,-3.1774,-3.1583,-3.1581,-3.1579,-3.1577,0,0,-3.1848,-3.1814,-3.1827,-3.1822,-3.1801,-3.1815,-3.1847,-3.185,-3.186,-3.1856,-3.188,-3.1901,-3.1863,-3.1862,-3.183,-3.1858,-3.1948,-3.1813,-3.1812,-3.1836,-3.2029,-3.2057,-3.2074,-3.192,-3.1923,-3.1925,-3.2029,0,-3.1951,-3.2,-3.1961,-3.2017,-3.2034,-3.1975,-3.2003,-3.1994,-3.1974,-3.1987,-3.1965,-3.198,-3.1929,-3.1928,-3.1954,-3.1931,-3.1985,-3.1924,-3.1941,-3.1942,-3.1942,-3.2091,-3.2121,-3.222,-3.2042,-3.2044,-3.2045,0,-3.2075,-3.2076,-3.2135,-3.2112,-3.2118,-3.2143,-3.2143,-3.2157,-3.2147,-3.213,-3.2132,-3.2093,-3.2123,-3.2066,-3.2107,-3.2066,-3.2072,-3.2063,-3.2066,-3.2062,-3.1997,-3.2089,-3.225,-3.2264,-3.2066,-3.2064,-3.2063,0,-3.2187,-3.2204,-3.224,-3.2239,-3.2214,-3.2233,-3.2224,-3.2211,-3.2216,-3.2218,-3.2221,-3.2227,-3.2229,-3.2236,-3.22,-3.2162,-3.2246,-3.2185,-3.2232,-3.2233,-3.2248,-3.2247,-3.241,-3.2259,-3.2259,-3.2259,-3.2259,0,-3.2302,-3.234,-3.229,-3.2312,-3.2354,-3.231,-3.2353,-3.2338,-3.2328,-3.2347,-3.2299,-3.2318,-3.2272,-3.2287,-3.226,-3.2298,-3.23,-3.2288,-3.2279,-3.229,-3.2291,-3.2289,-3.228,-3.2263,-3.2262,-3.2261,-3.226,0,-3.2431,-3.24,-3.2436,-3.2411,-3.2406,-3.2437,-3.2416,-3.2436,-3.2415,-3.244,-3.2444,-3.2411,-3.2426,-3.2393,-3.2405,-3.2387,-3.2439,-3.2422,-3.2442,-3.2435,-3.2483,-3.2478,-3.2647,-3.2666,-3.2507,-3.2509,-3.251,0,-3.2505,-3.2532,-3.2511,-3.252,-3.2514,-3.253,-3.2535,-3.2496,-3.2504,-3.2497,-3.2518,-3.253,-3.2537,-3.2565,-3.2542,-3.2551,-3.2532,-3.2591,-3.2532,-3.2542,-3.2529,-3.2526,-3.2528,-3.2601,-3.2603,-3.2605,-3.2606,0,-3.2638,-3.2622,-3.2631,-3.2637,-3.2645,-3.2647,-3.2646,-3.2657,-3.2615,-3.2627,-3.2642,-3.2648,-3.2661,-3.2673,-3.2677,-3.2669,-3.263,-3.2626,-3.2636,-3.2645,-3.2654,-3.2647,-3.2471,-3.2621,-3.2619,-3.2618,-3.2617,-3.2617,-3.2739,-3.2761,-3.275,-3.2763,-3.2758,-3.2759,-3.2777,-3.2759,-3.2771,-3.2778,-3.2755,-3.2776,-3.2769,-3.277,-3.2767,-3.2783,-3.2756,-3.2773,-3.2776,-3.278,-3.2786,-3.2656,-3.2784,-3.2784,-3.2783,-3.2783,-3.2783,0,-3.2867,-3.2858,-3.2871,-3.2871,-3.2882,-3.2848,-3.2846,-3.2857,-3.2876,-3.2872,-3.2881,-3.29,-3.2912,-3.2893,-3.2902,-3.2919,-3.2902,-3.2923,-3.2919,-3.2917,-3.2811,-3.2799,-3.2937,-3.2937,-3.2937,-3.2936,-3.2936,-3.2936,-3.2935,-3.297,-3.2954,-3.2987,-3.2978,-3.2998,-3.2999,-3.3001,-3.2997,-3.302,-3.3031,-3.3018,-3.3009,-3.3018,-3.3029,-3.3023,-3.3027,-3.3053,-3.3041,-3.294,-3.2925,-3.2911,-3.2899,-3.3056,-3.3056,-3.3146,-3.3147,-3.3147]},{"header":{"parameterUnit":"m.s-1","parameterCategory":1,"la1":30.2991,"la2":30.254,"lo1":-89.0895,"lo2":-89.0444,"dy":0.0017,"dx":0.0017,"nx":28,"ny":28,"refTime":"2025-11-25T03:00:00:Z","depth":0,"parameterNumber":3,"parameterNumberName":"V-component_of_WINDS"},"data":[0,0,0,0,0,0,0,0,0,0,0,0,0,0,0,0,0,0,0,0,0,0,0,0,0,0,0,0,0,0,0,0,0,0,0,0,0,0,0,0,0,0,0,0,0,0,0,0,0,0,0,0,0,0,0,0,0,0,1.6031,1.6032,0,1.613,1.6131,1.6132,1.6256,1.6258,1.626,1.6262,1.636,1.6361,1.6362,0,0,0,0,0,0,0,0,0,0,0,0,0,1.5947,1.5948,1.6031,1.6032,1.6033,1.613,1.6131,1.6133,1.6256,1.6258,1.6261,1.6263,1.636,1.6361,1.6362,0,0,0,0,0,0,0,0,0,0,0,0,0,1.6008,1.5948,1.6031,1.6107,1.6114,1.613,1.6131,1.6133,1.6255,1.6258,1.6261,1.6264,1.636,1.6361,1.6362,1.6309,0,0,1.6365,1.6366,0,0,0,0,0,0,0,0,1.6005,1.6011,1.6094,1.6101,1.611,1.6184,1.6138,1.6192,1.6255,1.6202,1.6262,1.6266,1.6299,1.6305,1.6317,1.6314,1.6318,1.6365,1.6366,1.6367,1.6367,0,0,0,0,0,0,0,1.6,1.6008,1.607,1.6095,1.6105,1.6135,1.6147,1.6149,1.6232,1.6207,1.6216,1.6226,1.6304,1.6316,1.632,1.632,1.6365,1.6366,1.6367,1.6368,1.6281,1.6279,0,0,0,0,0,0,1.5985,1.6004,1.6067,1.6073,1.6064,1.6134,1.6148,1.6157,1.6233,1.6247,1.6223,1.6231,1.6312,1.6319,1.6324,1.627,1.6367,1.6368,1.6368,1.6284,1.6281,1.6277,0,0,0,0,0,0,1.5983,1.599,1.6063,1.6041,1.6053,1.6133,1.6142,1.6158,1.617,1.6245,1.6261,1.622,1.6315,1.6323,1.6313,1.6275,1.6368,1.6369,1.6288,1.6283,1.6279,1.6158,0,0,0,0,0,0,1.598,1.5988,1.5969,1.604,1.6053,1.605,1.614,1.6157,1.6172,1.6183,1.6247,1.626,1.6318,1.6311,1.6314,1.6278,1.637,1.6292,1.6286,1.628,1.6166,1.615,1.6137,0,0,0,0,0,1.5977,1.593,1.5967,1.5974,1.6031,1.6047,1.6055,1.6124,1.6168,1.615,1.6199,1.6258,1.6278,1.6309,1.6314,1.6277,1.6294,1.6287,1.6281,1.6173,1.6153,1.6137,0,0,0,0,0,0,1.585,1.594,1.5983,1.5958,1.5994,1.6068,1.6047,1.6101,1.6124,1.6134,1.6217,1.6231,1.6211,1.6243,1.6275,1.6232,1.6295,1.6289,1.6211,1.6194,1.6179,1.6172,1.6371,0,0,0,0,0,1.582,1.5826,1.5904,1.5874,1.5891,1.5965,1.5975,1.6025,1.6066,1.6081,1.613,1.6166,1.6182,1.6189,1.6207,1.6172,1.6188,1.6149,1.6135,1.6122,1.6116,1.6102,1.6086,1.6255,1.6256,1.6256,0,0,1.5756,1.5806,1.5805,1.585,1.5885,1.5889,1.5977,1.5978,1.5982,1.6081,1.6076,1.6113,1.6159,1.6137,1.6129,1.6163,1.6073,1.6114,1.6103,1.6104,1.6093,1.6077,1.6062,1.6251,1.6252,1.6253,0,0,1.5644,1.5681,1.5662,1.5695,1.5747,1.5797,1.5792,1.5859,1.5888,1.5884,1.5959,1.5966,1.5989,1.602,1.6039,1.594,1.5996,1.5944,1.5867,1.5852,1.5839,1.5827,1.5793,1.578,1.5937,1.5937,1.5937,0,1.5558,1.5568,1.5645,1.5642,1.566,1.5752,1.5733,1.5761,1.5815,1.5825,1.5863,1.5897,1.5934,1.5921,1.5898,1.5909,1.5907,1.5936,1.5834,1.5824,1.5814,1.5783,1.577,1.593,1.5931,1.5932,1.5933,0,1.5461,1.5467,1.5445,1.5497,1.5513,1.5502,1.5577,1.5584,1.5633,1.5679,1.5675,1.5724,1.5755,1.5756,1.5802,1.575,1.577,1.5819,1.5885,1.579,1.5762,1.575,1.5921,1.5923,1.5925,1.5927,0,0,1.5269,1.5366,1.5357,1.5382,1.5447,1.5454,1.5447,1.5479,1.5483,1.5518,1.5515,1.5535,1.5582,1.5603,1.5655,1.5642,1.5563,1.5694,1.5697,1.5669,1.5509,1.5471,1.5456,1.5601,1.5599,1.5597,1.5506,0,1.5169,1.5164,1.5234,1.521,1.5217,1.5306,1.5301,1.534,1.5384,1.5397,1.5445,1.5458,1.5519,1.5533,1.5524,1.5574,1.5532,1.5582,1.5599,1.5598,1.5584,1.5441,1.5401,1.5312,1.5495,1.5493,1.5492,0,1.505,1.5081,1.5057,1.5126,1.5132,1.5126,1.5162,1.5173,1.5219,1.5252,1.5277,1.5338,1.5337,1.5399,1.5399,1.5431,1.5443,1.5469,1.5467,1.5471,1.5539,1.5442,1.5285,1.5272,1.5475,1.5476,1.5478,0,1.4914,1.4949,1.4941,1.496,1.5039,1.5033,1.5065,1.5115,1.5131,1.5162,1.5173,1.5202,1.5218,1.524,1.5307,1.5346,1.53,1.5368,1.5327,1.5326,1.5313,1.5313,1.5156,1.532,1.532,1.532,1.532,0,1.4794,1.4777,1.4881,1.4875,1.4859,1.494,1.4921,1.4963,1.5007,1.5011,1.509,1.5092,1.518,1.5193,1.5245,1.5238,1.5244,1.5271,1.5285,1.5264,1.5261,1.5272,1.528,1.5317,1.5317,1.5318,1.5319,0,1.4639,1.4707,1.4704,1.4781,1.4799,1.4784,1.485,1.4848,1.4898,1.4903,1.4908,1.4986,1.5005,1.5074,1.5109,1.5145,1.5121,1.5148,1.5106,1.5115,1.5071,1.5074,1.4917,1.4901,1.5073,1.5071,1.507,0,1.4558,1.4547,1.4623,1.4632,1.4662,1.4675,1.4692,1.4772,1.4786,1.484,1.4832,1.4858,1.4882,1.4909,1.4968,1.4996,1.5025,1.4968,1.5029,1.5009,1.5025,1.5025,1.5025,1.4954,1.4952,1.495,1.4948,0,1.4407,1.4442,1.4464,1.4498,1.4516,1.4546,1.4581,1.4584,1.4673,1.4685,1.4706,1.4726,1.4763,1.4788,1.4826,1.486,1.4919,1.4929,1.4921,1.4899,1.4875,1.4889,1.507,1.4932,1.4933,1.4935,1.4935,1.4936,1.4287,1.4283,1.4336,1.4358,1.4393,1.4424,1.4427,1.4479,1.4498,1.4536,1.4582,1.4597,1.4647,1.4705,1.4734,1.4748,1.478,1.4769,1.4766,1.4762,1.4752,1.4873,1.4755,1.4756,1.4756,1.4757,1.4757,0,1.4142,1.4181,1.42,1.4248,1.4265,1.4321,1.4363,1.4374,1.4387,1.4429,1.4453,1.4478,1.4503,1.4565,1.4597,1.4596,1.4624,1.4601,1.4602,1.4609,1.4721,1.4725,1.4578,1.4578,1.4578,1.4578,1.4578,1.4578,1.4068,1.4064,1.4105,1.412,1.416,1.4177,1.4196,1.4226,1.426,1.4285,1.4307,1.4348,1.4398,1.4434,1.446,1.4478,1.4486,1.4454,1.4481,1.4584,1.4601,1.4617,1.4621,1.4455,1.4455,1.4368,1.4367,1.4367]}]]